Location: Newark
(41.8083°N, 72.2500°W)
Time: 14:52:12
(UTC+00:00)

deb Explorer IX - Pass Details

Date: 07 December 2021
Orbit: 544 x 1082 km, 38.8° (Epoch: 19 January)

Event Time Altitude Azimuth Distance (km) Brightness Sun altitude
Rises 13:51:10 0° 239° (WSW) 3,302 ? 14.6°
Reaches altitude 10° 13:53:56 10° 233° (SW) 2,276 ? 14.9°
Maximum altitude 13:58:51 41° 164° (SSE) 978 ? 15.5°
Drops below altitude 10° 14:03:10 10° 94° (E) 1,983 ? 16.0°
Sets 14:05:25 0° 87° (E) 2,828 ? 16.2°
